Regional Weather Roundup
Issued by NWS Charleston, WV

Home | Current Version | Previous Version | Text Only | Print | Product List | Glossary Off
Versions: 1 2 3 4 5 6 7 8 9 10 11 12 13 14 15 16 17 18 19 20 21 22 23 24 25 26 27 28 29 30 31 32 33 34 35 36 37 38 39 40 41 42 43 44 45 46 47 48 49 50

000
ASUS41 KRLX 091810
RWRRLX
West Virginia Regional Weather Roundup
National Weather Service Charleston WV
100 PM EST TUE FEB 09 2016

Note: "fair" indicates few or no clouds below 12,000 feet with no
significant weather and/or obstructions to visibility.

WVZ003-091900-
Northern Panhandle of West Virginia

CITY           SKY/WX    TMP DP  RH WIND       PRES   REMARKS
WHEELING       LGT SNOW  26  21  81 SW12G20   29.60F
$$

WVZ009-091900-
Northwest West Virginia

CITY           SKY/WX    TMP DP  RH WIND       PRES   REMARKS
PARKERSBURG    LGT SNOW  25  20  81 W8G16     29.72F
$$

WVZ006-091900-
Western West Virginia

CITY           SKY/WX    TMP DP  RH WIND       PRES   REMARKS
HUNTINGTON     LGT SNOW  26  17  68 W9        29.75F
$$

WVZ015-091900-
West Central West Virginia

CITY           SKY/WX    TMP DP  RH WIND       PRES   REMARKS
CHARLESTON     FLURRIES  25  14  63 SW13      29.72F
$$

WVZ022-031-091900-
North Central West Virginia

CITY           SKY/WX    TMP DP  RH WIND       PRES   REMARKS
CLARKSBURG     LGT SNOW  25  20  81 SW12      29.64F
MORGANTOWN     LGT SNOW  25  20  81 S7        29.62F VSB 1
$$

WVZ025-035-042-045-091900-
Southern West Virginia

CITY           SKY/WX    TMP DP  RH WIND       PRES   REMARKS
BECKLEY        FLURRIES  21  14  74 W13       29.61S WCI   9
LOGAN          CLOUDY    21  12  68 W13G18    29.70F WCI   9
BLUEFIELD      LGT SNOW  19  13  77 NW12G21   29.59F WCI   7
LEWISBURG      FLURRIES  27  18  69 NW8       29.59F
$$

WVZ047-091900-
Northern Mountains of West Virginia

CITY           SKY/WX    TMP DP  RH WIND       PRES   REMARKS
ELKINS         CLOUDY    24  14  65 SW13      29.60F
$$

WVZ052-091900-
Eastern Panhandle of West Virginia

CITY           SKY/WX    TMP DP  RH WIND       PRES   REMARKS
MARTINSBURG    CLOUDY    35  28  75 W13       29.55F
PETERSBURG     PTSUNNY   34  15  45 CALM      29.58F
$$



USA.gov is the U.S. government's official web portal to all federal, state and local government web resources and services.